| time (UTC) | temp F | wind direction | speed MPH | gust MPH | rain 1hr in | rain 24hr in | rain mn in | humidity % | barometer mb |
| 20260507135424 | 55 | 25 | 2.0 | 5.0 | 0.00 | 0.00 | 0.00 | 50 | 1039.9 |
| 20260507134444 | 54 | 321 | 2.0 | 4.0 | 0.00 | 0.00 | 0.00 | 26 | 1040.1 |
| 20260507133420 | 53 | 63 | 4.0 | 8.0 | 0.00 | 0.00 | 0.00 | 17 | 1039.7 |
| 20260507132458 | 51 | 332 | 1.0 | 4.0 | 0.00 | 0.00 | 0.00 | 4 | 1039.9 |
| 20260507131508 | 49 | 6 | 2.0 | 3.0 | 0.00 | 0.00 | 0.00 | 1 | 1040.1 |
| 20260507130445 | 46 | 25 | 1.0 | 3.0 | 0.00 | 0.00 | 0.00 | 1 | 1039.7 |
| 20260507125454 | 44 | 234 | 2.0 | 4.0 | 0.00 | 0.00 | 0.00 | 1 | 1039.8 |
| 20260507124530 | 43 | 229 | 0.0 | 3.0 | 0.00 | 0.00 | 0.00 | 1 | 1040.1 |
| 20260507123439 | 41 | 225 | 1.0 | 1.0 | 0.00 | 0.00 | 0.00 | 1 | 1040.1 |
| 20260507122437 | 39 | 225 | 0.0 | 1.0 | 0.00 | 0.00 | 0.00 | 1 | 1040.1 |
| 20260507121435 | 38 | 0.0 | 0.0 | 0.00 | 0.00 | 0.00 | 1 | 1040.1 | |
| 20260507120453 | 38 | 0.0 | 0.0 | 0.00 | 0.00 | 0.00 | 1 | 1040.1 | |
| 20260507115451 | 37 | 0.0 | 0.0 | 0.00 | 0.00 | 0.00 | 1 | 1040.1 | |
| 20260507114429 | 36 | 0.0 | 0.0 | 0.00 | 0.00 | 0.00 | 1 | 1040.1 | |
| 20260507113527 | 36 | 0.0 | 0.0 | 0.00 | 0.00 | 0.00 | 1 | 1040.1 | |
| 20260507112425 | 35 | 0.0 | 0.0 | 0.00 | 0.00 | 0.00 | 1 | 1040.1 | |
| 20260507111423 | 35 | 0.0 | 0.0 | 0.00 | 0.01 | 0.00 | 1 | 1039.7 | |
| 20260507110521 | 35 | 0.0 | 0.0 | 0.00 | 0.01 | 0.00 | 1 | 1039.7 | |
| 20260507105519 | 35 | 0.0 | 0.0 | 0.00 | 0.01 | 0.00 | 1 | 1039.4 | |
| 20260507104518 | 35 | 0.0 | 0.0 | 0.00 | 0.01 | 0.00 | 1 | 1039.4 | |
| 20260507103545 | 35 | 0.0 | 0.0 | 0.00 | 0.01 | 0.00 | 1 | 1039.4 | |
| 20260507102454 | 35 | 0.0 | 0.0 | 0.00 | 0.01 | 0.00 | 1 | 1039.4 | |
| 20260507101531 | 35 | 0.0 | 0.0 | 0.00 | 0.01 | 0.00 | 1 | 1039.4 | |
| 20260507100439 | 36 | 0.0 | 0.0 | 0.00 | 0.01 | 0.00 | 1 | 1039.4 | |
| 20260507095437 | 36 | 0.0 | 0.0 | 0.00 | 0.01 | 0.00 | 1 | 1039.4 | |
| 20260507094505 | 36 | 0.0 | 0.0 | 0.00 | 0.01 | 0.00 | 1 | 1039.4 | |
| 20260507093533 | 36 | 0.0 | 0.0 | 0.00 | 0.01 | 0.00 | 1 | 1039.4 | |
| 20260507092532 | 36 | 0.0 | 0.0 | 0.00 | 0.01 | 0.00 | 1 | 1039.4 | |
| 20260507091429 | 36 | 0.0 | 0.0 | 0.00 | 0.01 | 0.00 | 1 | 1039.0 | |
| 20260507090507 | 36 | 0.0 | 0.0 | 0.00 | 0.01 | 0.00 | 1 | 1039.0 | |
| 20260507085525 | 36 | 0.0 | 0.0 | 0.00 | 0.01 | 0.00 | 1 | 1039.0 | |
| 20260507084523 | 37 | 0.0 | 0.0 | 0.00 | 0.01 | 0.00 | 1 | 1039.0 | |
| 20260507083531 | 37 | 0.0 | 0.0 | 0.00 | 0.01 | 0.00 | 1 | 1039.0 | |
| 20260507082521 | 37 | 0.0 | 0.0 | 0.00 | 0.01 | 0.00 | 1 | 1039.0 | |
| 20260507081518 | 37 | 0.0 | 0.0 | 0.00 | 0.01 | 0.00 | 1 | 1038.8 | |
| 20260507080516 | 37 | 0.0 | 0.0 | 0.00 | 0.01 | 0.00 | 1 | 1038.7 | |
| 20260507075514 | 37 | 0.0 | 0.0 | 0.00 | 0.02 | 0.00 | 1 | 1038.7 | |
| 20260507074512 | 37 | 0.0 | 0.0 | 0.00 | 0.03 | 0.00 | 1 | 1038.7 | |
| 20260507073511 | 38 | 0.0 | 0.0 | 0.00 | 0.05 | 0.00 | 1 | 1038.7 | |
| 20260507072438 | 38 | 0.0 | 0.0 | 0.00 | 0.06 | 0.00 | 1 | 1038.7 | |
| 20260507071436 | 38 | 0.0 | 0.0 | 0.00 | 0.07 | 0.00 | 1 | 1038.9 | |
| 20260507070534 | 38 | 0.0 | 0.0 | 0.00 | 0.10 | 0.00 | 1 | 1038.7 | |
| 20260507065532 | 38 | 0.0 | 0.0 | 0.00 | 0.13 | 0.00 | 1 | 1039.0 | |
| 20260507064530 | 38 | 0.0 | 0.0 | 0.00 | 0.14 | 0.00 | 1 | 1039.0 | |
| 20260507063530 | 39 | 0.0 | 0.0 | 0.00 | 0.14 | 0.00 | 1 | 1039.0 | |
| 20260507062536 | 39 | 0.0 | 0.0 | 0.00 | 0.15 | 0.00 | 1 | 1039.0 | |
| 20260507061534 | 39 | 0.0 | 0.0 | 0.00 | 0.15 | 0.00 | 1 | 1039.0 | |
| 20260507060453 | 39 | 0.0 | 0.0 | 0.00 | 0.18 | 0.00 | 1 | 1039.0 | |
| 20260507055530 | 40 | 0.0 | 0.0 | 0.00 | 0.21 | 0.00 | 1 | 1039.0 | |
| 20260507054447 | 40 | 0.0 | 0.0 | 0.00 | 0.22 | 0.00 | 1 | 1039.0 | |
| 20260507053445 | 40 | 0.0 | 0.0 | 0.00 | 0.24 | 0.00 | 1 | 1039.3 | |
| 20260507052514 | 40 | 0.0 | 0.0 | 0.00 | 0.26 | 0.00 | 1 | 1039.0 | |
| 20260507051511 | 40 | 0.0 | 0.0 | 0.00 | 0.29 | 0.00 | 1 | 1039.0 | |
| 20260507050459 | 41 | 0.0 | 0.0 | 0.00 | 0.38 | 0.00 | 1 | 1039.4 | |
| 20260507045547 | 41 | 0.0 | 0.0 | 0.00 | 0.41 | 0.00 | 1 | 1039.4 | |
| 20260507044505 | 41 | 0.0 | 0.0 | 0.00 | 0.47 | 0.00 | 1 | 1039.4 | |
| 20260507043433 | 41 | 0.0 | 0.0 | 0.00 | 0.48 | 0.00 | 1 | 1039.4 | |
| 20260507042530 | 42 | 0.0 | 0.0 | 0.00 | 0.52 | 0.00 | 1 | 1039.0 | |
| 20260507041528 | 42 | 0.0 | 0.0 | 0.00 | 0.56 | 0.00 | 1 | 1039.4 | |
| 20260507040516 | 42 | 0.0 | 0.0 | 0.00 | 0.64 | 0.00 | 1 | 1039.0 | |
| 20260507035454 | 43 | 0.0 | 0.0 | 0.00 | 0.66 | 0.66 | 1 | 1039.0 | |
| 20260507034522 | 43 | 0.0 | 0.0 | 0.00 | 0.68 | 0.66 | 1 | 1039.0 | |
| 20260507033450 | 44 | 0.0 | 0.0 | 0.00 | 0.68 | 0.66 | 1 | 1039.4 | |
| 20260507032418 | 44 | 0.0 | 0.0 | 0.00 | 0.68 | 0.66 | 1 | 1039.4 | |
| 20260507031516 | 44 | 0.0 | 0.0 | 0.00 | 0.68 | 0.66 | 1 | 1039.4 | |
| 20260507030514 | 45 | 0.0 | 0.0 | 0.00 | 0.68 | 0.66 | 1 | 1039.4 | |
| 20260507025442 | 45 | 0.0 | 0.0 | 0.00 | 0.68 | 0.66 | 1 | 1039.4 | |
| 20260507024541 | 46 | 0.0 | 0.0 | 0.00 | 0.70 | 0.66 | 1 | 1039.4 | |
| 20260507023439 | 46 | 0.0 | 0.0 | 0.00 | 0.71 | 0.66 | 1 | 1039.4 | |
| 20260507022456 | 47 | 0.0 | 0.0 | 0.00 | 0.73 | 0.66 | 1 | 1039.0 | |
| 20260507021454 | 47 | 0.0 | 0.0 | 0.00 | 0.74 | 0.66 | 1 | 1039.2 | |
| 20260507020533 | 47 | 0.0 | 0.0 | 0.00 | 0.76 | 0.66 | 1 | 1039.0 | |
| 20260507015510 | 48 | 0.0 | 0.0 | 0.00 | 0.79 | 0.66 | 1 | 1039.0 | |
| 20260507014458 | 48 | 0.0 | 0.0 | 0.00 | 0.81 | 0.66 | 1 | 1038.7 | |
| 20260507013456 | 49 | 0.0 | 0.0 | 0.00 | 0.82 | 0.66 | 8 | 1038.7 | |
| 20260507012554 | 49 | 0.0 | 0.0 | 0.00 | 0.82 | 0.66 | 15 | 1038.7 | |
| 20260507011452 | 50 | 0.0 | 0.0 | 0.00 | 0.82 | 0.66 | 21 | 1038.4 | |
| 20260507010450 | 51 | 0.0 | 0.0 | 0.00 | 0.86 | 0.66 | 30 | 1038.4 | |
| 20260507005519 | 52 | 0.0 | 0.0 | 0.00 | 0.90 | 0.66 | 37 | 1038.4 | |
| 20260507004447 | 53 | 0.0 | 0.0 | 0.00 | 0.94 | 0.66 | 41 | 1038.4 | |
| 20260507003515 | 53 | 0.0 | 0.0 | 0.00 | 0.94 | 0.66 | 42 | 1038.4 | |
| 20260507002443 | 54 | 0.0 | 0.0 | 0.00 | 0.94 | 0.66 | 46 | 1038.4 | |
| 20260507001412 | 55 | 0.0 | 0.0 | 0.00 | 0.95 | 0.66 | 49 | 1038.0 | |
| 20260507000300 | 55 | 0.0 | 0.0 | 0.00 | 0.96 | 0.66 | 49 | 1038.0 | |
| 20260506235238 | 56 | 0.0 | 0.0 | 0.00 | 0.96 | 0.66 | 50 | 1037.7 | |
| 20260506234236 | 56 | 0.0 | 0.0 | 0.00 | 0.96 | 0.66 | 51 | 1037.7 | |
| 20260506233234 | 57 | 270 | 0.0 | 3.0 | 0.00 | 0.98 | 0.66 | 51 | 1037.7 |
| 20260506232233 | 58 | 19 | 2.0 | 4.0 | 0.00 | 0.99 | 0.66 | 52 | 1037.7 |
| 20260506231230 | 58 | 2 | 2.0 | 5.0 | 0.00 | 0.99 | 0.66 | 52 | 1037.7 |
| 20260506230229 | 59 | 346 | 2.0 | 4.0 | 0.00 | 0.99 | 0.66 | 52 | 1037.7 |
| 20260506225256 | 59 | 58 | 3.0 | 5.0 | 0.00 | 0.99 | 0.66 | 52 | 1037.7 |
| 20260506224224 | 59 | 28 | 1.0 | 3.0 | 0.00 | 0.99 | 0.66 | 52 | 1037.7 |
| 20260506223222 | 59 | 60 | 1.0 | 3.0 | 0.00 | 0.99 | 0.66 | 52 | 1038.0 |
| 20260506222250 | 59 | 0.0 | 1.0 | 0.00 | 0.99 | 0.66 | 52 | 1038.0 | |
| 20260506221249 | 60 | 49 | 2.0 | 4.0 | 0.00 | 0.99 | 0.66 | 52 | 1038.0 |
| 20260506220246 | 60 | 91 | 1.0 | 3.0 | 0.00 | 0.99 | 0.66 | 51 | 1038.0 |
| 20260506215306 | 60 | 286 | 1.0 | 3.0 | 0.00 | 0.99 | 0.66 | 52 | 1038.0 |
| 20260506214302 | 60 | 23 | 1.0 | 3.0 | 0.00 | 1.00 | 0.66 | 52 | 1038.0 |
| 20260506213241 | 60 | 45 | 1.0 | 3.0 | 0.00 | 1.00 | 0.66 | 52 | 1038.0 |
| 20260506212238 | 60 | 0 | 0.0 | 1.0 | 0.00 | 1.01 | 0.66 | 52 | 1037.9 |
| 20260506211236 | 61 | 338 | 1.0 | 4.0 | 0.00 | 1.02 | 0.66 | 52 | 1037.7 |
| 20260506210234 | 61 | 240 | 1.0 | 3.0 | 0.00 | 1.02 | 0.66 | 52 | 1037.7 |
| 20260506205305 | 61 | 325 | 1.0 | 3.0 | 0.00 | 1.02 | 0.66 | 52 | 1037.5 |
| 20260506204241 | 61 | 33 | 1.0 | 3.0 | 0.00 | 1.03 | 0.66 | 52 | 1037.7 |
| 20260506203309 | 61 | 328 | 1.0 | 4.0 | 0.00 | 1.03 | 0.66 | 52 | 1037.7 |
| 20260506202226 | 60 | 307 | 0.0 | 3.0 | 0.00 | 1.04 | 0.66 | 52 | 1037.7 |
| 20260506201234 | 60 | 25 | 1.0 | 5.0 | 0.00 | 1.05 | 0.66 | 52 | 1037.7 |
| 20260506200253 | 60 | 2 | 1.0 | 3.0 | 0.00 | 1.06 | 0.66 | 52 | 1037.7 |
| 20260506195251 | 61 | 344 | 1.0 | 4.0 | 0.00 | 1.07 | 0.66 | 52 | 1037.7 |
| 20260506194220 | 62 | 25 | 2.0 | 4.0 | 0.00 | 1.10 | 0.66 | 52 | 1037.3 |
| 20260506193217 | 63 | 82 | 3.0 | 5.0 | 0.00 | 1.17 | 0.66 | 49 | 1037.3 |
| 20260506192245 | 63 | 29 | 3.0 | 7.0 | 0.00 | 1.21 | 0.66 | 50 | 1037.3 |
| 20260506191416 | 63 | 352 | 2.0 | 4.0 | 0.00 | 1.23 | 0.66 | 51 | 1037.3 |
| 20260506190242 | 64 | 7 | 4.0 | 7.0 | 0.00 | 1.23 | 0.66 | 51 | 1037.0 |
| 20260506185240 | 64 | 14 | 2.0 | 5.0 | 0.00 | 1.23 | 0.66 | 51 | 1037.1 |
| 20260506184239 | 65 | 55 | 2.0 | 4.0 | 0.00 | 1.23 | 0.66 | 51 | 1037.3 |
| 20260506183236 | 65 | 336 | 3.0 | 7.0 | 0.00 | 1.23 | 0.66 | 50 | 1037.0 |
| 20260506182234 | 65 | 196 | 1.0 | 3.0 | 0.00 | 1.23 | 0.66 | 51 | 1037.0 |
| 20260506181232 | 65 | 59 | 3.0 | 7.0 | 0.00 | 1.23 | 0.66 | 51 | 1037.3 |
| 20260506180231 | 64 | 118 | 2.0 | 4.0 | 0.00 | 1.23 | 0.66 | 50 | 1037.0 |
| 20260506175229 | 64 | 268 | 2.0 | 4.0 | 0.00 | 1.23 | 0.66 | 51 | 1037.3 |
| 20260506174227 | 63 | 330 | 1.0 | 5.0 | 0.00 | 1.23 | 0.66 | 51 | 1037.7 |
| 20260506173314 | 63 | 360 | 4.0 | 8.0 | 0.00 | 1.23 | 0.66 | 51 | 1037.7 |
| 20260506172222 | 63 | 11 | 2.0 | 4.0 | 0.00 | 1.23 | 0.66 | 47 | 1037.7 |
| 20260506171250 | 63 | 20 | 1.0 | 4.0 | 0.00 | 1.23 | 0.66 | 50 | 1037.7 |
| 20260506170249 | 62 | 25 | 2.0 | 4.0 | 0.00 | 1.23 | 0.66 | 47 | 1037.7 |
| 20260506165246 | 62 | 72 | 1.0 | 3.0 | 0.00 | 1.23 | 0.66 | 48 | 1037.8 |
| 20260506164245 | 62 | 158 | 1.0 | 3.0 | 0.00 | 1.23 | 0.66 | 45 | 1037.7 |
| 20260506163242 | 62 | 22 | 4.0 | 8.0 | 0.00 | 1.23 | 0.66 | 43 | 1037.7 |
| 20260506162240 | 61 | 88 | 3.0 | 4.0 | 0.00 | 1.23 | 0.66 | 43 | 1037.7 |
| 20260506161238 | 61 | 45 | 1.0 | 3.0 | 0.00 | 1.23 | 0.66 | 39 | 1037.7 |
| 20260506160235 | 60 | 111 | 4.0 | 10.0 | 0.00 | 1.23 | 0.66 | 46 | 1037.7 |
| 20260506155233 | 60 | 39 | 1.0 | 3.0 | 0.00 | 1.23 | 0.66 | 36 | 1037.3 |
| 20260506154231 | 60 | 341 | 2.0 | 4.0 | 0.00 | 1.23 | 0.66 | 32 | 1037.3 |
| 20260506153311 | 59 | 186 | 1.0 | 4.0 | 0.00 | 1.23 | 0.66 | 21 | 1037.7 |
| 20260506152228 | 58 | 28 | 4.0 | 7.0 | 0.00 | 1.23 | 0.66 | 30 | 1037.8 |
| 20260506151227 | 58 | 23 | 1.0 | 5.0 | 0.00 | 1.23 | 0.66 | 8 | 1037.5 |
| 20260506150315 | 57 | 23 | 3.0 | 7.0 | 0.00 | 1.23 | 0.66 | 1 | 1037.3 |
| 20260506145231 | 55 | 23 | 4.0 | 7.0 | 0.00 | 1.23 | 0.66 | 1 | 1037.0 |
| 20260506144249 | 54 | 23 | 3.0 | 7.0 | 0.00 | 1.23 | 0.66 | 1 | 1036.7 |
| 20260506143248 | 53 | 23 | 2.0 | 8.0 | 0.00 | 1.23 | 0.66 | 1 | 1036.7 |
| 20260506142246 | 52 | 23 | 2.0 | 4.0 | 0.00 | 1.23 | 0.66 | 1 | 1036.7 |
| 20260506141244 | 51 | 23 | 1.0 | 4.0 | 0.00 | 1.23 | 0.66 | 1 | 1036.7 |
| 20260506140242 | 51 | 23 | 2.0 | 4.0 | 0.00 | 1.23 | 0.66 | 1 | 1036.7 |